Location: Newark
(48.1500°N, 2.9667°W)
Time: 06:17:01
(UTC+00:00)

Transit 2A - Pass Details

Date: 29 January 2020
Orbit: 600 x 959 km, 66.7° (Epoch: 19 February)

Event Time Altitude Azimuth Distance (km) Brightness Sun altitude
Rises 04:14:30 0° 321° (NW) 2,989 - -34.9°
Reaches altitude 10° 04:16:46 10° 316° (NW) 2,116 - -34.6°
Maximum altitude 04:21:24 51° 241° (WSW) 909 - -33.8°
Drops below altitude 10° 04:26:29 10° 167° (SSE) 2,321 - -33.0°
Exits shadow 04:27:57 - 164° (SSE) 2,878 9.0 -32.7°
Sets 04:29:04 0° 162° (SSE) 3,307 9.4 -32.6°
